• In Romania
  • List of Countries
  • For 7 days
  • Water Temperature
  • Satellite Maps
  • Weather Map
  • Weather Widgets
  • user-avatar
    Login

    Hourly Weather Wlora

    Today, 18 January, Thursday

    Time Temperature Precipitation Wind Pressure Humidity
    00:00 +6°C° 0.2 mm 14 mps 753 mmHg 76%
    01:00 +5°C° 0 mm 16 mps 754 mmHg 74%
    02:00 +5°C° 0 mm 16 mps 755 mmHg 72%
    03:00 +4°C° 0 mm 16 mps 756 mmHg 71%
    04:00 +4°C° 0 mm 16 mps 757 mmHg 70%
    05:00 +2°C° 0 mm 15 mps 758 mmHg 68%
    06:00 +3°C° 0 mm 14 mps 759 mmHg 67%
    07:00 +1°C° 0 mm 13 mps 760 mmHg 66%
    08:00 +3°C° 0 mm 13 mps 761 mmHg 60%
    09:00 +4°C° 0 mm 12 mps 762 mmHg 54%
    10:00 +5°C° 0 mm 12 mps 762 mmHg 47%
    11:00 +6°C° 0 mm 11 mps 763 mmHg 45%
    12:00 +7°C° 0 mm 10 mps 763 mmHg 44%
    13:00 +7°C° 0 mm 9 mps 764 mmHg 42%
    14:00 +7°C° 0 mm 8 mps 764 mmHg 46%
    15:00 +8°C° 0 mm 7 mps 764 mmHg 49%
    16:00 +7°C° 0 mm 6 mps 764 mmHg 53%
    17:00 +6°C° 0 mm 5 mps 764 mmHg 53%
    18:00 +5°C° 0 mm 4 mps 764 mmHg 54%
    19:00 +5°C° 0 mm 3 mps 764 mmHg 54%
    20:00 +5°C° 0 mm 3 mps 764 mmHg 52%
    21:00 +6°C° 0 mm 2 mps 764 mmHg 51%
    22:00 +6°C° 0 mm 2 mps 764 mmHg 49%
    23:00 +5°C° 0 mm 3 mps 764 mmHg 49%

    Tomorrow, 19 January, Friday

    Time Temperature Precipitation Wind Pressure Humidity
    00:00 +5°C° 0 mm 4 mps 764 mmHg 49%
    01:00 +5°C° 0 mm 4 mps 764 mmHg 50%
    02:00 +5°C° 0 mm 5 mps 764 mmHg 50%
    03:00 +5°C° 0 mm 5 mps 764 mmHg 51%
    04:00 +4°C° 0 mm 6 mps 763 mmHg 51%
    05:00 +4°C° 0 mm 6 mps 763 mmHg 53%
    06:00 +4°C° 0 mm 6 mps 763 mmHg 55%
    07:00 +4°C° 0 mm 6 mps 763 mmHg 57%
    08:00 +6°C° 0 mm 7 mps 763 mmHg 58%
    09:00 +9°C° 0 mm 7 mps 763 mmHg 59%
    10:00 +10°C° 0 mm 7 mps 763 mmHg 60%
    11:00 +11°C° 0 mm 7 mps 763 mmHg 61%
    12:00 +12°C° 0 mm 7 mps 762 mmHg 62%
    13:00 +14°C° 0 mm 7 mps 762 mmHg 63%
    14:00 +12°C° 0 mm 8 mps 762 mmHg 68%
    15:00 +11°C° 0 mm 8 mps 761 mmHg 73%
    16:00 +11°C° 0 mm 8 mps 761 mmHg 78%
    17:00 +10°C° 0 mm 8 mps 761 mmHg 82%
    18:00 +9°C° 0 mm 8 mps 761 mmHg 85%
    19:00 +7°C° 0 mm 8 mps 761 mmHg 88%
    20:00 +7°C° 0 mm 8 mps 761 mmHg 88%
    21:00 +7°C° 0 mm 8 mps 761 mmHg 89%
    22:00 +7°C° 0 mm 8 mps 761 mmHg 89%
    23:00 +7°C° 0 mm 8 mps 761 mmHg 89%

    Day after tomorrow, 20 January, Saturday

    Time Temperature Precipitation Wind Pressure Humidity
    00:00 +7°C° 0 mm 8 mps 761 mmHg 90%
    01:00 +9°C° 0 mm 8 mps 761 mmHg 90%
    02:00 +9°C° 0 mm 8 mps 760 mmHg 91%
    03:00 +9°C° 0 mm 7 mps 760 mmHg 92%
    04:00 +9°C° 0 mm 7 mps 759 mmHg 93%
    05:00 +9°C° 0.1 mm 7 mps 759 mmHg 92%
    06:00 +9°C° 0.1 mm 7 mps 759 mmHg 92%
    07:00 +9°C° 0.1 mm 6 mps 759 mmHg 92%
    08:00 +10°C° 0.2 mm 6 mps 760 mmHg 91%
    09:00 +12°C° 0.2 mm 5 mps 760 mmHg 89%
    10:00 +12°C° 0.2 mm 5 mps 760 mmHg 87%
    11:00 +13°C° 0.2 mm 4 mps 760 mmHg 85%
    12:00 +13°C° 0.2 mm 4 mps 759 mmHg 82%
    13:00 +14°C° 0.2 mm 3 mps 759 mmHg 79%
    14:00 +13°C° 0.1 mm 3 mps 759 mmHg 82%
    15:00 +13°C° 0.1 mm 3 mps 759 mmHg 84%
    16:00 +13°C° 0.1 mm 3 mps 759 mmHg 86%
    17:00 +13°C° 0 mm 2 mps 759 mmHg 88%
    18:00 +12°C° 0 mm 2 mps 759 mmHg 90%
    19:00 +12°C° 0 mm 2 mps 759 mmHg 92%
    20:00 +10°C° 0 mm 2 mps 759 mmHg 92%
    21:00 +10°C° 0 mm 2 mps 759 mmHg 92%
    22:00 +10°C° 0 mm 2 mps 759 mmHg 92%
    23:00 +10°C° 0.1 mm 3 mps 759 mmHg 93%

    21 January, Sunday

    Time Temperature Precipitation Wind Pressure Humidity
    00:00 +10°C° 0.1 mm 4 mps 758 mmHg 93%
    01:00 +9°C° 0.1 mm 5 mps 758 mmHg 93%
    02:00 +9°C° 0.3 mm 5 mps 757 mmHg 93%
    03:00 +9°C° 0.3 mm 6 mps 756 mmHg 94%
    04:00 +9°C° 0.3 mm 6 mps 756 mmHg 94%
    05:00 +9°C° 0.2 mm 6 mps 755 mmHg 93%
    06:00 +9°C° 0.2 mm 6 mps 754 mmHg 92%
    07:00 +10°C° 0.2 mm 6 mps 754 mmHg 92%
    08:00 +10°C° 0.8 mm 6 mps 753 mmHg 89%
    09:00 +10°C° 0.8 mm 7 mps 753 mmHg 86%
    10:00 +11°C° 0.8 mm 7 mps 753 mmHg 83%
    11:00 +10°C° 3.7 mm 7 mps 752 mmHg 86%
    12:00 +10°C° 3.7 mm 6 mps 751 mmHg 90%
    13:00 +9°C° 3.7 mm 6 mps 750 mmHg 94%
    14:00 +9°C° 2 mm 6 mps 750 mmHg 94%
    15:00 +9°C° 2 mm 6 mps 750 mmHg 95%
    16:00 +8°C° 2 mm 6 mps 750 mmHg 95%
    17:00 +8°C° 0.3 mm 7 mps 750 mmHg 94%
    18:00 +7°C° 0.3 mm 8 mps 750 mmHg 93%
    19:00 +7°C° 0.3 mm 9 mps 751 mmHg 92%
    20:00 +7°C° 0.1 mm 10 mps 751 mmHg 92%
    21:00 +7°C° 0.1 mm 10 mps 752 mmHg 92%
    22:00 +7°C° 0.1 mm 11 mps 753 mmHg 91%
    23:00 +6°C° 0 mm 11 mps 753 mmHg 90%

    22 January, Monday

    Time Temperature Precipitation Wind Pressure Humidity
    00:00 +5°C° 0 mm 12 mps 754 mmHg 89%
    01:00 +5°C° 0 mm 12 mps 754 mmHg 88%
    02:00 +4°C° 0 mm 12 mps 755 mmHg 85%
    03:00 +4°C° 0 mm 11 mps 755 mmHg 83%
    04:00 +3°C° 0 mm 11 mps 755 mmHg 80%
    05:00 +3°C° 0 mm 11 mps 756 mmHg 78%
    06:00 +3°C° 0 mm 11 mps 757 mmHg 77%
    07:00 +2°C° 0 mm 10 mps 757 mmHg 75%
    08:00 +5°C° 0 mm 10 mps 758 mmHg 68%
    09:00 +6°C° 0 mm 10 mps 758 mmHg 61%
    10:00 +7°C° 0 mm 10 mps 759 mmHg 55%
    11:00 +8°C° 0 mm 10 mps 759 mmHg 54%
    12:00 +8°C° 0 mm 11 mps 759 mmHg 54%
    13:00 +9°C° 0 mm 12 mps 759 mmHg 53%
    14:00 +8°C° 0 mm 11 mps 759 mmHg 56%
    15:00 +8°C° 0 mm 11 mps 760 mmHg 59%
    16:00 +7°C° 0 mm 10 mps 760 mmHg 62%
    17:00 +6°C° 0 mm 10 mps 761 mmHg 65%
    18:00 +5°C° 0 mm 10 mps 761 mmHg 67%
    19:00 +3°C° 0 mm 9 mps 762 mmHg 70%
    20:00 +3°C° 0 mm 9 mps 762 mmHg 69%
    21:00 +2°C° 0 mm 9 mps 763 mmHg 68%
    22:00 +2°C° 0 mm 8 mps 763 mmHg 66%
    23:00 +2°C° 0 mm 8 mps 764 mmHg 65%

    23 January, Tuesday

    Time Temperature Precipitation Wind Pressure Humidity
    00:00 +1°C° 0 mm 8 mps 764 mmHg 64%
    01:00 +1°C° 0 mm 8 mps 764 mmHg 63%
    02:00 +1°C° 0 mm 8 mps 765 mmHg 63%
    03:00 +2°C° 0 mm 7 mps 765 mmHg 62%
    04:00 +2°C° 0 mm 7 mps 765 mmHg 61%
    05:00 +2°C° 0 mm 7 mps 765 mmHg 60%
    06:00 +2°C° 0 mm 7 mps 766 mmHg 59%
    07:00 +2°C° 0 mm 6 mps 766 mmHg 59%
    08:00 +4°C° 0 mm 6 mps 766 mmHg 53%
    09:00 +7°C° 0 mm 6 mps 767 mmHg 48%
    10:00 +8°C° 0 mm 6 mps 767 mmHg 42%
    11:00 +9°C° 0 mm 6 mps 767 mmHg 39%
    12:00 +10°C° 0 mm 6 mps 767 mmHg 36%
    13:00 +11°C° 0 mm 6 mps 767 mmHg 34%
    14:00 +11°C° 0 mm 6 mps 767 mmHg 39%
    15:00 +10°C° 0 mm 7 mps 768 mmHg 44%
    16:00 +9°C° 0 mm 7 mps 768 mmHg 49%
    17:00 +8°C° 0 mm 6 mps 768 mmHg 50%
    18:00 +7°C° 0 mm 6 mps 769 mmHg 50%
    19:00 +5°C° 0 mm 6 mps 769 mmHg 51%
    20:00 +4°C° 0 mm 6 mps 769 mmHg 50%
    21:00 +5°C° 0 mm 5 mps 770 mmHg 49%
    22:00 +5°C° 0 mm 5 mps 770 mmHg 47%
    23:00 +5°C° 0 mm 5 mps 770 mmHg 45%
    Show more